Date String (YYYY-MM-DD hh:mm:ss) UTC,Instrument flags,absolute air pressure of the measurement (hPa),sample flow rate (lpm),inlet stack bypass flow (lpm),air temperature of the measurement (°C),ambient temperature measured by the external sensor (°C),aerosol sample conditioner tube jacket temperature (°C),OPC LED temperature (°C),internal box temperature (°C),relative humidity of the measurement (%),span deviation,mass concentration of particles derived from Lorenz-Mie calculation of OPC scattering (μg/m³),mass concentration of particles derived from Lorenz-Mie calculation of OPC scattering (μg/m³),mass concentration of particles derived from Lorenz-Mie calculation of OPC scattering (μg/m³)
DateTimeUTC,F1_M11,P_M11,Q1_M11,Q2_M11,T1_M11,T2_M11,T3_M11,T4_M11,T5_M11,U1_M11,ZSPAN_M11,X0_M11,X2_M11,X1_M11
2023-07-28 14:00:00,SystemResetWarning,0834.9,5.01,000.00,029.6,028.3,000.0,038.1,031.2,29.3,0000.0,0007.33,0003.86,0003.27
2023-07-28 14:01:00,SystemResetWarning,0835.0,5.00,000.00,029.6,028.4,000.0,038.1,031.3,28.8,0000.0,0007.14,0003.82,0003.27
2023-07-28 14:02:00,SystemResetWarning,0834.9,5.00,000.00,029.7,028.5,000.0,038.1,031.3,28.3,0000.0,0007.15,0003.81,0003.26
2023-07-28 14:03:00,SystemResetWarning,0834.9,4.99,000.00,029.7,028.5,000.0,038.1,031.3,28.1,0000.0,0007.06,0003.78,0003.24
2023-07-28 14:04:00,SystemResetWarning,0834.9,4.99,000.00,029.7,027.3,000.0,038.0,031.2,26.3,0000.0,0007.07,0003.77,0003.23
2023-07-28 14:05:00,SystemResetWarning,0835.3,5.00,000.00,029.6,025.6,000.0,037.9,030.9,26.2,0000.0,0007.03,0003.75,0003.21
2023-07-28 14:06:00,SystemResetWarning,0835.3,5.00,000.00,029.5,025.1,000.0,037.8,030.7,25.4,0000.0,0006.76,0003.71,0003.21
2023-07-28 14:07:00,SystemResetWarning,0835.3,5.01,000.00,029.4,025.4,000.0,037.8,030.5,27.7,0000.0,0006.67,0003.70,0003.19
2023-07-28 14:08:00,SystemResetWarning,0835.4,5.00,000.00,029.3,025.8,000.0,037.9,030.6,29.6,0000.0,0006.54,0003.67,0003.19
2023-07-28 14:09:00,SystemResetWarning,0835.2,5.00,000.00,029.3,026.2,000.0,037.9,030.7,32.4,0000.0,0006.49,0003.67,0003.18
2023-07-28 14:10:00,SystemResetWarning,0835.0,5.00,000.00,029.3,026.6,000.0,037.9,030.7,31.0,0000.0,0006.25,0003.64,0003.16
2023-07-28 14:11:00,SystemResetWarning,0834.9,5.00,000.00,029.3,026.9,000.0,037.9,030.8,30.5,0000.0,0006.22,0003.63,0003.16
2023-07-28 14:12:00,SystemResetWarning,0834.9,5.01,000.00,029.3,027.2,000.0,037.9,030.9,29.3,0000.0,0006.16,0003.62,0003.14
2023-07-28 14:13:00,SystemResetWarning,0834.9,5.00,000.00,029.3,027.5,000.0,037.9,030.9,32.5,0000.0,0005.90,0003.58,0003.12
2023-07-28 14:14:00,SystemResetWarning,0835.0,4.99,000.00,029.4,027.7,000.0,037.9,031.0,33.4,0000.0,0005.92,0003.57,0003.11
2023-07-28 14:15:00,SystemResetWarning,0835.1,4.99,000.00,029.5,027.8,000.0,037.9,031.0,34.9,0000.0,0005.85,0003.56,0003.11
2023-07-28 14:16:00,SystemResetWarning,0835.1,5.00,000.00,029.6,028.0,000.0,037.9,031.1,34.9,0000.0,0006.89,0003.56,0003.11
2023-07-28 14:17:00,SystemResetWarning,0835.0,5.01,000.00,029.8,028.1,000.0,037.9,031.2,33.7,0000.0,0007.08,0003.59,0003.10
2023-07-28 14:18:00,SystemResetWarning,0835.0,5.01,000.00,030.0,028.2,000.0,037.9,031.3,30.0,0000.0,0006.87,0003.56,0003.10
2023-07-28 14:19:00,SystemResetWarning,0835.0,5.00,000.00,030.1,028.3,000.0,038.0,031.3,30.1,0000.0,0007.00,0003.54,0003.10
2023-07-28 14:20:00,SystemResetWarning,0835.0,5.00,000.00,030.2,028.4,000.0,038.1,031.3,30.2,0000.0,0006.92,0003.51,0003.09
2023-07-28 14:21:00,SystemResetWarning,0835.0,5.00,000.00,030.2,028.5,000.0,038.1,031.4,30.7,0000.0,0007.09,0003.51,0003.08
2023-07-28 14:22:00,SystemResetWarning,0834.9,5.00,000.00,030.3,028.5,000.0,038.2,031.4,30.2,0000.0,0007.09,0003.50,0003.06
2023-07-28 14:23:00,SystemResetWarning,0834.9,5.00,000.00,030.3,028.6,000.0,038.3,031.4,27.9,0000.0,0007.16,0003.51,0003.07
2023-07-28 14:24:00,SystemResetWarning,0834.9,4.99,000.00,030.3,027.9,000.0,038.3,031.4,28.8,0000.0,0007.28,0003.53,0003.06
2023-07-28 14:25:00,SystemResetWarning,0834.9,5.00,000.00,030.3,026.1,000.0,038.2,031.2,28.8,0000.0,0007.35,0003.57,0003.09
2023-07-28 14:26:00,SystemResetWarning,0834.9,5.01,000.00,030.2,025.4,000.0,038.1,031.1,28.3,0000.0,0007.22,0003.56,0003.10
2023-07-28 14:27:00,SystemResetWarning,0835.0,5.01,000.00,030.1,025.6,000.0,038.1,030.9,29.6,0000.0,0006.86,0003.60,0003.11
2023-07-28 14:28:00,SystemResetWarning,0834.9,5.00,000.00,030.0,025.9,000.0,038.2,030.8,28.3,0000.0,0006.28,0003.60,0003.11
2023-07-28 14:29:00,SystemResetWarning,0835.0,5.00,000.00,030.0,026.3,000.0,038.2,030.9,31.2,0000.0,0006.29,0003.61,0003.11
2023-07-28 14:30:00,SystemResetWarning,0834.9,5.00,000.00,030.0,026.7,000.0,038.2,030.9,31.7,0000.0,0006.30,0003.62,0003.11
2023-07-28 14:31:00,SystemResetWarning,0835.0,5.00,000.00,030.0,027.0,000.0,038.3,031.0,31.3,0000.0,0006.14,0003.62,0003.12
2023-07-28 14:32:00,SystemResetWarning,0835.0,5.00,000.00,030.0,027.3,000.0,038.3,031.1,30.8,0000.0,0006.08,0003.64,0003.13
2023-07-28 14:33:00,SystemResetWarning,0835.0,4.99,000.00,030.0,027.5,000.0,038.3,031.1,31.1,0000.0,0006.26,0003.71,0003.16
2023-07-28 14:34:00,SystemResetWarning,0835.0,4.98,000.00,030.0,027.7,000.0,038.3,031.2,30.8,0000.0,0006.57,0003.74,0003.17
2023-07-28 14:35:00,SystemResetWarning,0835.0,5.00,000.00,030.0,027.9,000.0,038.3,031.2,31.8,0000.0,0006.81,0003.73,0003.17
2023-07-28 14:36:00,SystemResetWarning,0835.0,5.01,000.00,030.0,028.1,000.0,038.3,031.2,30.4,0000.0,0006.69,0003.67,0003.17
2023-07-28 14:37:00,SystemResetWarning,0835.0,5.01,000.00,030.0,028.2,000.0,038.3,031.3,29.7,0000.0,0006.88,0003.69,0003.18
2023-07-28 14:38:00,SystemResetWarning,0835.0,4.99,000.00,030.0,028.3,000.0,038.3,031.3,31.4,0000.0,0007.01,0003.70,0003.19
2023-07-28 14:39:00,SystemResetWarning,0835.0,5.00,000.00,030.0,028.4,000.0,038.4,031.4,31.5,0000.0,0007.04,0003.69,0003.21
2023-07-28 14:40:00,SystemResetWarning,0835.0,5.00,000.00,030.1,028.5,000.0,038.4,031.4,32.2,0000.0,0007.28,0003.72,0003.23
2023-07-28 14:41:00,SystemResetWarning,0835.0,5.00,000.00,030.1,028.4,000.0,038.4,031.4,32.8,0000.0,0007.34,0003.75,0003.25
2023-07-28 14:42:00,SystemResetWarning,0835.0,4.99,000.00,030.1,027.1,000.0,038.3,031.3,32.1,0000.0,0007.86,0003.80,0003.26
2023-07-28 14:43:00,SystemResetWarning,0835.0,5.00,000.00,030.0,025.7,000.0,038.2,031.1,33.6,0000.0,0008.12,0003.84,0003.27
2023-07-28 14:44:00,SystemResetWarning,0835.0,4.99,000.00,029.9,025.5,000.0,038.1,030.9,34.5,0000.0,0008.10,0003.83,0003.27
2023-07-28 14:45:00,SystemResetWarning,0835.3,5.03,000.00,029.9,025.8,000.0,038.1,030.8,35.9,0000.0,0007.90,0003.80,0003.28
2023-07-28 14:46:00,SystemResetWarning,0835.4,4.99,000.00,030.1,026.1,000.0,038.2,031.0,35.6,0000.0,0007.71,0003.82,0003.31
2023-07-28 14:47:00,SystemResetWarning,0835.3,5.00,000.00,030.4,026.5,000.0,038.2,031.2,35.4,0000.0,0007.78,0003.87,0003.33
2023-07-28 14:48:00,SystemResetWarning,0834.9,5.01,000.00,030.7,026.9,000.0,038.2,031.3,32.2,0000.0,0007.79,0003.90,0003.34
2023-07-28 14:49:00,SystemResetWarning,0835.0,4.98,000.00,030.9,027.2,000.0,038.3,031.4,30.9,0000.0,0007.74,0003.90,0003.35
2023-07-28 14:50:00,SystemResetWarning,0835.0,5.00,000.00,031.0,027.5,000.0,038.4,031.4,30.1,0000.0,0008.18,0003.95,0003.36
2023-07-28 14:51:00,SystemResetWarning,0835.0,5.01,000.00,031.1,027.7,000.0,038.5,031.4,30.6,0000.0,0008.07,0003.95,0003.37
2023-07-28 14:52:00,SystemResetWarning,0835.0,4.99,000.00,031.2,027.9,000.0,038.6,031.4,30.7,0000.0,0008.80,0003.98,0003.39
2023-07-28 14:53:00,SystemResetWarning,0835.0,4.99,000.00,031.2,028.0,000.0,038.7,031.5,30.2,0000.0,0008.89,0004.03,0003.42
2023-07-28 14:54:00,SystemResetWarning,0835.0,5.01,000.00,031.2,028.2,000.0,038.8,031.5,31.5,0000.0,0008.66,0004.04,0003.43
2023-07-28 14:55:00,SystemResetWarning,0835.0,5.01,000.00,031.3,028.3,000.0,038.9,031.6,32.0,0000.0,0008.59,0004.03,0003.45
2023-07-28 14:56:00,SystemResetWarning,0835.0,5.00,000.00,031.3,028.3,000.0,038.9,031.6,31.5,0000.0,0009.31,0004.04,0003.46
2023-07-28 14:57:00,SystemResetWarning,0835.0,4.98,000.00,031.3,027.0,000.0,038.9,031.5,31.1,0000.0,0009.40,0004.07,0003.48
2023-07-28 14:58:00,SystemResetWarning,0835.0,5.01,000.00,031.2,025.7,000.0,038.8,031.3,31.2,0000.0,0009.49,0004.10,0003.50
2023-07-28 14:59:00,SystemResetWarning,0835.0,5.01,000.00,031.1,025.5,000.0,038.7,031.2,30.9,0000.0,0009.54,0004.11,0003.52
